Location: Caixon
(43.4106°N, 0.0273°E)
Time: 04:17:13
(UTC+00:00)

Cosmos 1726 - Pass Details

Date: 16 October 2021
Orbit: 479 x 493 km, 82.5° (Epoch: 30 November)

Event Time Altitude Azimuth Distance (km) Brightness Sun altitude
Rises 04:06:18 0° 358° (N) 2,564 5.9 -24.1°
Reaches altitude 10° 04:08:30 10° 6° (N) 1,681 5.0 -23.7°
Maximum altitude 04:11:59 40° 78° (ENE) 732 3.4 -23.1°
Drops below altitude 10° 04:15:28 10° 149° (SSE) 1,676 5.0 -22.4°
Sets 04:17:39 0° 157° (SSE) 2,555 5.9 -22.0°
